[[{"header":{"parameterUnit":"m.s-1","parameterCategory":1,"la1":30.2991,"la2":30.254,"lo1":-89.0895,"lo2":-89.0444,"dy":0.0017,"dx":0.0017,"nx":28,"ny":28,"refTime":"2025-04-08T09:00:00:Z","depth":0,"parameterNumber":2,"parameterNumberName":"U-component_of_WINDS"},"data":[0,0,0,0,0,0,0,0,0,0,0,0,0,0,0,0,0,0,0,0,0,0,0,0,0,0,0,0,0,0,0,0,0,0,0,0,0,0,0,0,0,0,0,0,0,0,0,0,0,0,0,0,0,0,0,0,0,0,1.2835,1.2834,0,1.2803,1.2802,1.2802,1.2772,1.2772,1.2771,1.2771,1.2738,1.2737,1.2737,0,0,0,0,0,0,0,0,0,0,0,0,0,1.287,1.2869,1.2835,1.2834,1.2834,1.2803,1.2802,1.2802,1.2772,1.2772,1.2771,1.2771,1.2738,1.2737,1.2737,0,0,0,0,0,0,0,0,0,0,0,0,0,1.2848,1.2869,1.2835,1.2815,1.2813,1.2803,1.2802,1.2802,1.2772,1.2772,1.2771,1.2771,1.2738,1.2737,1.2737,1.2742,0,0,1.2734,1.2734,0,0,0,0,0,0,0,0,1.2849,1.2847,1.2819,1.2817,1.2814,1.2791,1.2802,1.2782,1.2772,1.2788,1.2771,1.277,1.2756,1.2754,1.2749,1.2741,1.2739,1.2734,1.2734,1.2733,1.2733,0,0,0,0,0,0,0,1.2851,1.2848,1.2822,1.2818,1.2816,1.2808,1.2804,1.2798,1.2775,1.2786,1.2784,1.2781,1.2755,1.275,1.2748,1.2739,1.2734,1.2733,1.2733,1.2733,1.2733,1.2734,0,0,0,0,0,0,1.2855,1.2849,1.2823,1.2821,1.2831,1.2808,1.2804,1.2799,1.2775,1.2771,1.2781,1.278,1.2751,1.2749,1.2746,1.2751,1.2733,1.2732,1.2732,1.2733,1.2733,1.2734,0,0,0,0,0,0,1.2856,1.2853,1.2824,1.2835,1.283,1.2808,1.2803,1.2799,1.2793,1.2771,1.2767,1.2781,1.2751,1.2748,1.2743,1.2749,1.2732,1.2731,1.2732,1.2733,1.2734,1.276,0,0,0,0,0,0,1.2857,1.2854,1.2856,1.2835,1.283,1.2822,1.2803,1.2798,1.2792,1.279,1.2769,1.2766,1.275,1.2745,1.2743,1.2748,1.2731,1.2732,1.2733,1.2733,1.2759,1.2762,1.2764,0,0,0,0,0,1.2859,1.2865,1.2856,1.2853,1.2832,1.2823,1.282,1.2802,1.2793,1.2795,1.278,1.2766,1.2749,1.2745,1.2742,1.2747,1.2731,1.2732,1.2733,1.2757,1.2761,1.2764,0,0,0,0,0,0,1.2887,1.2862,1.2852,1.2851,1.2839,1.2818,1.2819,1.2806,1.2797,1.2795,1.2773,1.2768,1.2766,1.2756,1.2752,1.2751,1.2738,1.2739,1.2757,1.2761,1.2764,1.2765,1.273,0,0,0,0,0,1.2893,1.2888,1.2866,1.2867,1.2862,1.2842,1.2837,1.2824,1.2811,1.2806,1.2791,1.2778,1.277,1.2765,1.2756,1.2757,1.2752,1.2759,1.2762,1.2765,1.2765,1.2764,1.2767,1.2738,1.2738,1.2738,0,0,1.2906,1.2891,1.2889,1.2873,1.2862,1.2856,1.2838,1.2833,1.2828,1.2805,1.2799,1.2789,1.2773,1.2771,1.277,1.2763,1.2772,1.2766,1.2768,1.2767,1.2766,1.2768,1.2771,1.2739,1.2738,1.2738,0,0,1.2926,1.2915,1.2914,1.2904,1.2888,1.2874,1.2874,1.2854,1.2846,1.2841,1.2823,1.2817,1.2804,1.2793,1.2786,1.2802,1.2788,1.28,1.2814,1.2813,1.2816,1.2817,1.2822,1.2824,1.28,1.28,1.2801,0,1.2943,1.2934,1.2916,1.2912,1.2905,1.2883,1.2883,1.2873,1.2855,1.2851,1.2843,1.2825,1.2814,1.2809,1.2812,1.2808,1.2806,1.2801,1.2817,1.2819,1.282,1.2824,1.2826,1.2802,1.2802,1.2802,1.2801,0,1.2956,1.2951,1.2952,1.2935,1.2928,1.2926,1.2907,1.2902,1.289,1.2877,1.2872,1.2857,1.2844,1.2842,1.2831,1.2836,1.2832,1.2821,1.2807,1.2825,1.2828,1.2829,1.2804,1.2803,1.2803,1.2803,0,0,1.2993,1.2965,1.2966,1.2958,1.2938,1.2933,1.293,1.2917,1.2913,1.2902,1.2898,1.2887,1.2877,1.2869,1.2856,1.2855,1.2867,1.2844,1.2843,1.2848,1.2871,1.2878,1.288,1.2859,1.2859,1.2859,1.2871,0,1.3008,1.3001,1.2984,1.2981,1.2975,1.2955,1.2952,1.294,1.2928,1.292,1.2907,1.2899,1.2887,1.2882,1.288,1.2866,1.2871,1.2865,1.2854,1.2854,1.2857,1.2882,1.289,1.2902,1.2873,1.2873,1.2873,0,1.3026,1.3015,1.3012,1.2992,1.2989,1.2987,1.2974,1.2967,1.2953,1.2944,1.2935,1.2921,1.2915,1.2904,1.2896,1.2892,1.2887,1.2879,1.2879,1.2876,1.2864,1.2879,1.2906,1.2907,1.2875,1.2875,1.2875,0,1.3051,1.3036,1.3032,1.3026,1.3003,1.3001,1.2992,1.2977,1.297,1.2959,1.2955,1.2943,1.2937,1.2928,1.291,1.2904,1.2904,1.2891,1.2896,1.2896,1.2896,1.2896,1.2921,1.2895,1.2895,1.2895,1.2895,0,1.307,1.3068,1.3043,1.304,1.3038,1.3019,1.3017,1.3005,1.2992,1.2987,1.2969,1.2964,1.2942,1.2935,1.2921,1.2916,1.2914,1.2906,1.2902,1.2907,1.2908,1.2902,1.29,1.2895,1.2895,1.2895,1.2895,0,1.3097,1.308,1.3074,1.3053,1.3048,1.3047,1.3029,1.3025,1.3013,1.3006,1.3003,1.2983,1.2973,1.2955,1.2941,1.2931,1.2929,1.2923,1.2934,1.2931,1.2936,1.2936,1.2958,1.2959,1.2933,1.2933,1.2934,0,1.311,1.3108,1.3087,1.3082,1.3073,1.3065,1.3059,1.304,1.3033,1.3016,1.3015,1.3004,1.2994,1.2979,1.2963,1.2951,1.2944,1.2953,1.2942,1.2947,1.2943,1.2943,1.2942,1.2955,1.2955,1.2956,1.2956,0,1.3133,1.3125,1.3116,1.3104,1.3096,1.3086,1.3074,1.3071,1.3049,1.3043,1.3033,1.3025,1.301,1.2999,1.2985,1.2975,1.2962,1.2959,1.296,1.2964,1.297,1.2965,1.2939,1.2959,1.2958,1.2958,1.2958,1.2958,1.3153,1.315,1.3134,1.3125,1.3114,1.3104,1.3099,1.3086,1.3077,1.3063,1.3053,1.3043,1.3028,1.3008,1.2999,1.2991,1.2984,1.2985,1.2985,1.2985,1.2986,1.2972,1.2988,1.2988,1.2988,1.2988,1.2988,0,1.3174,1.3163,1.3155,1.3139,1.3131,1.312,1.3107,1.3101,1.3093,1.308,1.307,1.3058,1.3047,1.303,1.3018,1.3015,1.3008,1.3012,1.3012,1.3009,1.2993,1.2994,1.3018,1.3018,1.3018,1.3018,1.3018,1.3018,1.3184,1.3179,1.3169,1.3158,1.3147,1.3137,1.313,1.3121,1.311,1.3097,1.3088,1.3077,1.3063,1.3049,1.3038,1.3034,1.3029,1.3035,1.3028,1.3013,1.3011,1.3008,1.3008,1.3035,1.3035,1.3045,1.3045,1.3045]},{"header":{"parameterUnit":"m.s-1","parameterCategory":1,"la1":30.2991,"la2":30.254,"lo1":-89.0895,"lo2":-89.0444,"dy":0.0017,"dx":0.0017,"nx":28,"ny":28,"refTime":"2025-04-08T09:00:00:Z","depth":0,"parameterNumber":3,"parameterNumberName":"V-component_of_WINDS"},"data":[0,0,0,0,0,0,0,0,0,0,0,0,0,0,0,0,0,0,0,0,0,0,0,0,0,0,0,0,0,0,0,0,0,0,0,0,0,0,0,0,0,0,0,0,0,0,0,0,0,0,0,0,0,0,0,0,0,0,-4.0693,-4.0695,0,-4.0922,-4.0925,-4.0928,-4.0913,-4.091,-4.0907,-4.0904,-4.1139,-4.1149,-4.1158,0,0,0,0,0,0,0,0,0,0,0,0,0,-4.0243,-4.0251,-4.0693,-4.0695,-4.0698,-4.0922,-4.0925,-4.0928,-4.0914,-4.091,-4.0906,-4.0902,-4.1136,-4.1147,-4.1159,0,0,0,0,0,0,0,0,0,0,0,0,0,-4.0452,-4.0254,-4.0692,-4.0718,-4.0723,-4.0921,-4.0925,-4.0929,-4.0915,-4.091,-4.0905,-4.09,-4.1133,-4.1146,-4.116,-4.1348,0,0,-4.1203,-4.1209,0,0,0,0,0,0,0,0,-4.044,-4.0469,-4.0711,-4.0717,-4.0722,-4.0884,-4.0853,-4.107,-4.0916,-4.0842,-4.0903,-4.0898,-4.1059,-4.1078,-4.1133,-4.1359,-4.1369,-4.1205,-4.1213,-4.1219,-4.1223,0,0,0,0,0,0,0,-4.0426,-4.0459,-4.0784,-4.0715,-4.0722,-4.0719,-4.0743,-4.0894,-4.0976,-4.0848,-4.0848,-4.0875,-4.1061,-4.1119,-4.1138,-4.1373,-4.1204,-4.1217,-4.1225,-4.1231,-4.1767,-4.1772,0,0,0,0,0,0,-4.0405,-4.0447,-4.0776,-4.079,-4.0566,-4.0731,-4.0758,-4.0837,-4.0974,-4.099,-4.0879,-4.0873,-4.1097,-4.1122,-4.1146,-4.1376,-4.1219,-4.1232,-4.124,-4.1761,-4.1768,-4.1774,0,0,0,0,0,0,-4.0396,-4.0435,-4.0767,-4.0619,-4.0661,-4.0744,-4.0833,-4.0844,-4.0903,-4.0997,-4.1012,-4.0924,-4.1094,-4.1126,-4.1298,-4.1384,-4.1239,-4.1252,-4.1754,-4.1763,-4.1771,-4.1837,0,0,0,0,0,0,-4.0383,-4.0431,-4.0503,-4.062,-4.0669,-4.0915,-4.0839,-4.0853,-4.0927,-4.0922,-4.1043,-4.1058,-4.1093,-4.1277,-4.1312,-4.1401,-4.1263,-4.1747,-4.1758,-4.1768,-4.1828,-4.1847,-4.1864,0,0,0,0,0,-4.0367,-4.0513,-4.0507,-4.0547,-4.076,-4.092,-4.0948,-4.0984,-4.0934,-4.1008,-4.1068,-4.1055,-4.1369,-4.1295,-4.1334,-4.1429,-4.1741,-4.1755,-4.1767,-4.182,-4.1843,-4.1863,0,0,0,0,0,0,-4.0404,-4.0528,-4.0523,-4.0711,-4.0805,-4.0917,-4.1011,-4.1008,-4.1118,-4.1108,-4.1149,-4.1177,-4.135,-4.1406,-4.1322,-4.1618,-4.1549,-4.157,-4.1575,-4.1598,-4.1616,-4.1599,-4.1274,0,0,0,0,0,-4.0433,-4.0552,-4.0655,-4.0811,-4.0858,-4.0927,-4.0998,-4.1018,-4.1117,-4.1156,-4.123,-4.1326,-4.1447,-4.1526,-4.1642,-4.1836,-4.1863,-4.192,-4.1938,-4.1952,-4.197,-4.2079,-4.2106,-4.1817,-4.1816,-4.1816,0,0,-4.0497,-4.0579,-4.0652,-4.0821,-4.0896,-4.1019,-4.096,-4.1092,-4.1184,-4.1176,-4.1343,-4.1401,-4.1512,-4.1696,-4.178,-4.1748,-4.2056,-4.1969,-4.1979,-4.199,-4.2095,-4.2122,-4.2146,-4.1825,-4.1824,-4.1822,0,0,-4.0675,-4.0749,-4.0888,-4.0964,-4.1079,-4.1123,-4.1156,-4.127,-4.1308,-4.1476,-4.1473,-4.1583,-4.179,-4.1869,-4.1936,-4.2146,-4.2138,-4.2183,-4.2277,-4.2381,-4.2404,-4.2425,-4.2501,-4.2527,-4.22,-4.2201,-4.2201,0,-4.0739,-4.0924,-4.0959,-4.1093,-4.1168,-4.1166,-4.1308,-4.138,-4.1527,-4.1579,-4.1541,-4.1801,-4.1875,-4.2079,-4.213,-4.2184,-4.2224,-4.2169,-4.2398,-4.2419,-4.2438,-4.2511,-4.254,-4.2205,-4.2205,-4.2204,-4.2204,0,-4.0997,-4.1126,-4.1224,-4.1366,-4.1452,-4.1589,-4.1646,-4.1728,-4.1741,-4.179,-4.1962,-4.2051,-4.2186,-4.2236,-4.225,-4.2442,-4.2419,-4.2389,-4.232,-4.247,-4.2539,-4.2567,-4.2212,-4.221,-4.2209,-4.2208,0,0,-4.1205,-4.1365,-4.1401,-4.1466,-4.1593,-4.1693,-4.183,-4.1962,-4.2033,-4.2134,-4.2251,-4.2426,-4.24,-4.2477,-4.2499,-4.2591,-4.2753,-4.2551,-4.2554,-4.2586,-4.2972,-4.2994,-4.3026,-4.2748,-4.2754,-4.2758,-4.2963,0,-4.1397,-4.164,-4.1676,-4.1891,-4.2011,-4.2012,-4.2131,-4.2222,-4.2272,-4.2381,-4.2435,-4.256,-4.2515,-4.2562,-4.2652,-4.2714,-4.2831,-4.27,-4.2858,-4.2864,-4.2831,-4.3062,-4.3086,-4.3275,-4.299,-4.2995,-4.2998,0,-4.1653,-4.1762,-4.1988,-4.21,-4.2151,-4.2258,-4.2383,-4.2487,-4.259,-4.262,-4.2706,-4.2718,-4.2861,-4.2786,-4.2984,-4.2894,-4.2961,-4.3001,-4.301,-4.3026,-4.294,-4.3086,-4.3336,-4.3365,-4.3041,-4.3038,-4.3035,0,-4.1783,-4.1986,-4.2148,-4.2203,-4.2337,-4.2413,-4.2472,-4.257,-4.2648,-4.2757,-4.2808,-4.2932,-4.3,-4.3096,-4.3142,-4.3082,-4.3338,-4.3266,-4.3367,-4.3367,-4.3422,-4.3418,-4.3687,-4.3463,-4.3463,-4.3462,-4.3462,0,-4.1994,-4.2133,-4.2208,-4.2308,-4.2464,-4.2505,-4.2659,-4.2716,-4.2804,-4.2915,-4.2923,-4.3028,-4.3081,-4.3194,-4.323,-4.339,-4.342,-4.3449,-4.3457,-4.3449,-4.3446,-4.3494,-4.3482,-4.347,-4.3468,-4.3467,-4.3466,0,-4.2166,-4.2222,-4.2399,-4.2511,-4.2543,-4.2653,-4.2749,-4.2847,-4.2895,-4.3037,-4.3072,-4.3149,-4.3283,-4.3337,-4.3501,-4.3525,-4.3709,-4.3707,-4.3674,-4.3677,-4.3776,-4.3766,-4.4087,-4.4131,-4.3877,-4.3879,-4.3881,0,-4.2297,-4.2404,-4.2528,-4.2603,-4.2665,-4.2786,-4.2865,-4.291,-4.2992,-4.3119,-4.3202,-4.3335,-4.3444,-4.3657,-4.3728,-4.3853,-4.3855,-4.3958,-4.3874,-4.3863,-4.3858,-4.3851,-4.3863,-4.3974,-4.3977,-4.3979,-4.398,0,-4.2525,-4.2547,-4.2661,-4.2785,-4.288,-4.298,-4.3077,-4.3138,-4.3198,-4.3291,-4.3427,-4.3512,-4.3679,-4.3812,-4.3941,-4.4003,-4.4003,-4.4007,-4.4037,-4.403,-4.4007,-4.4022,-4.3718,-4.3999,-4.3997,-4.3996,-4.3995,-4.3994,-4.2681,-4.2777,-4.2879,-4.3006,-4.3084,-4.3175,-4.3273,-4.3334,-4.3449,-4.3588,-4.3608,-4.3755,-4.3857,-4.4031,-4.4098,-4.4213,-4.4187,-4.4231,-4.4242,-4.4252,-4.426,-4.3988,-4.4237,-4.4237,-4.4236,-4.4236,-4.4235,0,-4.291,-4.2976,-4.3093,-4.3229,-4.3329,-4.332,-4.3427,-4.3512,-4.3641,-4.3736,-4.3843,-4.4001,-4.413,-4.4211,-4.4341,-4.4419,-4.4422,-4.4451,-4.4447,-4.4461,-4.4275,-4.4236,-4.4447,-4.4447,-4.4447,-4.4447,-4.4447,-4.4446,-4.3041,-4.3203,-4.3238,-4.3439,-4.3504,-4.3648,-4.371,-4.3795,-4.3871,-4.4047,-4.4154,-4.4206,-4.4296,-4.4433,-4.4552,-4.4572,-4.462,-4.4652,-4.4671,-4.4496,-4.4474,-4.4453,-4.4417,-4.4662,-4.4662,-4.4848,-4.485,-4.4851]}]]